"Pseudo-MPEC" for C0MHJ75

Created 2023 Dec 2 2:22:02 UT using Find_Orb

Click here for an explanation of pseudo-MPECs

 
 Astrometry: 
     C0MHJ75* C2023 11 12.48368805 52 13.811+47 30 43.31   ~BCCq 22.65GVNEOCPV00
     C0MHJ75  C2023 11 12.49200205 52 12.299+47 30 54.65   ~BCCq 22.59GVNEOCPV00
     C0MHJ75  C2023 11 12.50301605 52 10.297+47 31 09.08   ~BCCq 22.42GVNEOCPV00
     C0MHJ75 mC2023 11 13.39262005 49 42.750+47 51 03.90   ~BDA7 22.36GVNEOCPV00
     C0MHJ75 mC2023 11 13.39481805 49 42.360+47 51 06.80   ~BDA7 22.53GVNEOCPV00
     C0MHJ75 mC2023 11 13.39733905 49 41.850+47 51 09.80   ~BDA7       VNEOCPV00

Station data:
(V00) Kitt Peak-Bok  (N31.963125 W111.600190)  US/Arizona.  Observers T. A.
   Pruyne, B. M. Africano, E. J. Christensen, G. A. Farneth, D. C. Fuls, A.
   R. Gibbs, A. D. Grauer, H. Gröller, J. A. Johnson, R. A. Kowalski, S. M.
   Larson, G. J. Leonard, D. Rankin, R. L. Seaman, F. C. Shelly, K. W.
   Wierzchoś. 2.25-m reflector + 4x4K mosaic CCD.

Orbital elements:  C0MHJ75
   Perihelion 2023 Sep 22.35835 +/- 114 TT =  8:36:01 (JD 2460209.85835)
Epoch 2023 Nov 13.0 TT = JDT 2460261.5   Earth MOID: 0.0306   Ju: 0.1237
M   6.87967653 +/- 100              (J2000 ecliptic)             AutoNEOCP
n   0.13321954 +/- 0.234            Peri.  326.44110 +/- 27
a   3.79685567 +/- 4.44             Node    32.42381 +/- 35
e   0.7456538 +/- 0.195             Incl.   13.33108 +/- 4.1
P   7.40                   H 23.51  G  0.15   U 11.8  SR
q 0.96571545 +/- 0.172    Q 6.62799589 +/- 1.91
From 6 observations 2023 Nov. 12-13 (21.9 hr); mean residual 0".14
Residuals in arcseconds: 
231112 V00  .10+  .08-    231112 V00  .12-  .07-    231113 V00  .21+  .11+    
231112 V00  .02+  .15+    231113 V00  .08+  .07+    231113 V00  .28-  .17-    

Ephemerides (geocentric):
Date (UTC) HH   RA             Dec           delta  r     elong  mag " sig PA
---- --------  ------------   ------------  ------ ------ -----  --- --------
2023 12 02 02  05 00 51.645   +50 25 56.78  .45439 1.4003 150.8 23.5 263'  83
2023 12 02 03  05 00 46.232   +50 25 52.04  .45476 1.4007 150.8 23.5 265'  83
2023 12 02 04  05 00 40.826   +50 25 47.22  .45514 1.4011 150.8 23.5 266'  83
2023 12 02 05  05 00 35.427   +50 25 42.32  .45552 1.4015 150.8 23.5 267'  83
2023 12 02 06  05 00 30.035   +50 25 37.34  .45589 1.4019 150.9 23.5 269'  83
2023 12 02 07  05 00 24.650   +50 25 32.28  .45627 1.4023 150.9 23.5 270'  83
2023 12 02 08  05 00 19.272   +50 25 27.14  .45664 1.4027 150.9 23.5 271'  83
2023 12 02 09  05 00 13.902   +50 25 21.92  .45702 1.4031 150.9 23.5 273'  84
2023 12 02 10  05 00 08.539   +50 25 16.62  .45740 1.4035 150.9 23.5 274'  84
2023 12 02 11  05 00 03.183   +50 25 11.23  .45777 1.4039 151.0 23.5 275'  84
2023 12 02 12  04 59 57.834   +50 25 05.77  .45815 1.4042 151.0 23.5 277'  84
2023 12 02 13  04 59 52.492   +50 25 00.23  .45853 1.4046 151.0 23.5 278'  84
2023 12 02 14  04 59 47.158   +50 24 54.61  .45891 1.4050 151.0 23.5 279'  84
2023 12 02 15  04 59 41.831   +50 24 48.91  .45928 1.4054 151.0 23.6 281'  84
2023 12 02 16  04 59 36.511   +50 24 43.13  .45966 1.4058 151.0 23.6 282'  84
2023 12 02 17  04 59 31.199   +50 24 37.27  .46004 1.4062 151.1 23.6 283'  84
2023 12 02 18  04 59 25.893   +50 24 31.33  .46042 1.4066 151.1 23.6 285'  84
2023 12 02 19  04 59 20.595   +50 24 25.32  .46080 1.4070 151.1 23.6 286'  84
2023 12 02 20  04 59 15.304   +50 24 19.23  .46118 1.4074 151.1 23.6 287'  84
2023 12 02 21  04 59 10.021   +50 24 13.05  .46156 1.4078 151.1 23.6 289'  85
2023 12 02 22  04 59 04.745   +50 24 06.81  .46194 1.4082 151.1 23.6 290'  85
2023 12 02 23  04 58 59.476   +50 24 00.48  .46232 1.4086 151.2 23.6 291'  85
2023 12 03 00  04 58 54.215   +50 23 54.08  .46270 1.4090 151.2 23.6 293'  85
2023 12 03 01  04 58 48.960   +50 23 47.59  .46308 1.4094 151.2 23.6 294'  85
2023 12 03 02  04 58 43.714   +50 23 41.04  .46346 1.4098 151.2 23.6 296'  85
2023 12 03 03  04 58 38.474   +50 23 34.40  .46384 1.4102 151.2 23.6 297'  85
2023 12 03 04  04 58 33.242   +50 23 27.69  .46422 1.4106 151.2 23.6 298'  85
2023 12 03 05  04 58 28.017   +50 23 20.90  .46460 1.4110 151.3 23.6 300'  85
2023 12 03 06  04 58 22.800   +50 23 14.04  .46498 1.4114 151.3 23.6 301'  85
2023 12 03 07  04 58 17.590   +50 23 07.10  .46536 1.4118 151.3 23.6 303'  85
2023 12 03 08  04 58 12.387   +50 23 00.08  .46575 1.4122 151.3 23.6 304'  85
2023 12 03 09  04 58 07.192   +50 22 52.99  .46613 1.4126 151.3 23.6 305'  86
2023 12 03 10  04 58 02.004   +50 22 45.82  .46651 1.4130 151.3 23.6 307'  86
2023 12 03 11  04 57 56.824   +50 22 38.58  .46689 1.4134 151.4 23.6 308'  86
2023 12 03 12  04 57 51.651   +50 22 31.26  .46728 1.4138 151.4 23.6 310'  86
2023 12 03 13  04 57 46.485   +50 22 23.87  .46766 1.4142 151.4 23.6 311'  86
2023 12 03 14  04 57 41.327   +50 22 16.40  .46804 1.4146 151.4 23.6 312'  86
2023 12 03 15  04 57 36.176   +50 22 08.86  .46843 1.4150 151.4 23.6 314'  86
2023 12 03 16  04 57 31.033   +50 22 01.24  .46881 1.4154 151.4 23.6 315'  86
2023 12 03 17  04 57 25.897   +50 21 53.55  .46920 1.4158 151.4 23.6 317'  86
2023 12 03 18  04 57 20.769   +50 21 45.78  .46958 1.4162 151.5 23.6 318'  86
2023 12 03 19  04 57 15.648   +50 21 37.94  .46997 1.4166 151.5 23.6 320'  86
2023 12 03 20  04 57 10.534   +50 21 30.03  .47035 1.4170 151.5 23.6 321'  86
2023 12 03 21  04 57 05.428   +50 21 22.05  .47074 1.4174 151.5 23.6 323'  87
2023 12 03 22  04 57 00.330   +50 21 13.99  .47112 1.4178 151.5 23.6 324'  87
2023 12 03 23  04 56 55.239   +50 21 05.86  .47151 1.4182 151.5 23.6 325'  87
2023 12 04 00  04 56 50.156   +50 20 57.65  .47189 1.4186 151.5 23.6 327'  87
2023 12 04 01  04 56 45.080   +50 20 49.37  .47228 1.4190 151.6 23.6 328'  87